Philip, SD

1:33 PM MST on February 24, 2017 (GMT -0700)
Philip

Weather History for KPHP - July, 2013

Change the Weather History Date:

Wednesday, July 24, 2013

  Actual Average Record
Temperature  
Mean Temperature 74 °F 76 °F  
Max Temperature 88 °F 91 °F 111 °F (2003)
Min Temperature 60 °F 61 °F 49 °F (1950)
Degree Days  
Heating Degree Days 0 0  
Month to date heating degree days 0 3  
Since 1 June heating degree days 64 66  
Since 1 July heating degree days 0 3  
Cooling Degree Days 9 11  
Month to date cooling degree days 291 227  
Year to date cooling degree days 439 377  
Since 1 June cooling degree days 418 350  
Growing Degree Days 24 (Base 50)    
Moisture  
Dew Point 56 °F    
Average Humidity 58    
Maximum Humidity 84    
Minimum Humidity 31    
Precipitation  
Precipitation 0.00 in 0.06 in 0.84 in (1968)
Month to date precipitation 0.99 1.68  
Year to date precipitation 8.45 11.53  
Sea Level Pressure  
Sea Level Pressure 30.00 in    
Wind  
Wind Speed 8 mph (East)    
Max Wind Speed 20 mph    
Max Gust Speed 23 mph    
Visibility 10 miles    
Events      
T = Trace of Precipitation, MM = Missing Value Source: NWS Daily Summary

Daily Weather History Graph

Daily Weather History Graph

Search for Another Location

Airport or City:

Trip Planner

Search our weather history database for the weather conditions in past years. The results will help you decide how hot, cold, wet, or windy it might be!

Date:

Astronomy

Jul. 24, 2013 Rise Set
Actual Time 5:26 AM MDT 8:18 PM MDT
Civil Twilight 4:52 AM MDT 8:52 PM MDT
Nautical Twilight 4:09 AM MDT 9:35 PM MDT
Astronomical Twilight 3:18 AM MDT 10:25 PM MDT
Moon 9:17 PM MDT 7:55 AM MDT
Length of Visible Light 16h 00m
Length of Day
14h 52m
Waning Gibbous, 94% of the Moon is Illuminated
Jul 24
Waning Gibbous
Jul 29
Last Quarter
Aug 6
New
Aug 14
First Quarter
Aug 20
Full

Hourly Weather History & Observations

Time (MDT) Temp. Heat Index Dew Point Humidity Pressure Visibility Wind Dir Wind Speed Gust Speed Precip Events Conditions
12:55 AM 64.9 °F - 57.0 °F 75% 30.00 in 10.0 mi West 6.9 mph - N/A   Clear
1:55 AM 64.0 °F - 57.0 °F 78% 30.00 in 10.0 mi Calm Calm - N/A   Clear
2:55 AM 62.1 °F - 57.0 °F 84% 30.04 in 10.0 mi NE 10.4 mph - N/A   Scattered Clouds
3:55 AM 63.0 °F - 57.0 °F 81% 30.02 in 10.0 mi SE 6.9 mph - N/A   Clear
4:55 AM 63.0 °F - 57.0 °F 81% 30.02 in 10.0 mi SSE 6.9 mph - N/A   Clear
5:55 AM 62.1 °F - 57.0 °F 84% 30.04 in 10.0 mi South 8.1 mph - N/A   Clear
6:55 AM 66.0 °F - 57.9 °F 75% 30.04 in 10.0 mi West 5.8 mph - N/A   Clear
7:55 AM 68.0 °F - 59.0 °F 73% 30.05 in 10.0 mi West 9.2 mph - N/A   Clear
8:55 AM 73.0 °F - 60.1 °F 64% 30.04 in 10.0 mi Variable 4.6 mph - N/A   Clear
9:55 AM 79.0 °F - 60.1 °F 52% 30.04 in 10.0 mi Variable 5.8 mph - N/A   Clear
10:55 AM 82.0 °F 82.4 °F 60.1 °F 47% 30.03 in 10.0 mi North 8.1 mph - N/A   Clear
11:55 AM 84.0 °F 83.3 °F 57.0 °F 40% 30.02 in 10.0 mi NNE 9.2 mph - N/A   Clear
12:55 PM 84.9 °F 83.9 °F 57.0 °F 38% 30.01 in 10.0 mi East 8.1 mph - N/A   Partly Cloudy
1:55 PM 84.0 °F 83.3 °F 57.0 °F 40% 30.00 in 10.0 mi NE 9.2 mph - N/A   Scattered Clouds
2:55 PM 86.0 °F 84.7 °F 55.9 °F 36% 29.97 in 10.0 mi East 13.8 mph 18.4 mph N/A   Scattered Clouds
3:55 PM 87.1 °F 85.3 °F 55.0 °F 33% 29.96 in 10.0 mi East 11.5 mph 17.3 mph N/A   Clear
4:55 PM 87.1 °F 84.9 °F 53.1 °F 31% 29.96 in 10.0 mi ENE 10.4 mph - N/A   Clear
5:55 PM 86.0 °F 84.0 °F 53.1 °F 32% 29.95 in 10.0 mi East 8.1 mph - N/A   Clear
6:55 PM 84.0 °F - 51.1 °F 32% 29.94 in 10.0 mi East 11.5 mph - N/A   Clear
7:55 PM 79.0 °F - 52.0 °F 39% 29.95 in 10.0 mi East 6.9 mph - N/A   Clear
8:55 PM 73.0 °F - 53.1 °F 49% 29.97 in 10.0 mi East 8.1 mph - N/A   Clear
9:55 PM 68.0 °F - 55.0 °F 63% 29.96 in 10.0 mi East 8.1 mph - N/A   Clear
10:55 PM 71.1 °F - 54.0 °F 55% 29.95 in 10.0 mi ESE 5.8 mph - N/A   Clear
11:55 PM 70.0 °F - 57.9 °F 65% 29.95 in 10.0 mi SSE 8.1 mph - N/A   Clear